Location: Newark
(43.6583°N, 1.6617°E)
Time: 14:01:18
(UTC+00:00)

Transit 4A - Pass Details

Date: 30 August 2019
Orbit: 865 x 980 km, 66.8° (Epoch: 19 September)

Event Time Altitude Azimuth Distance (km) Brightness Sun altitude
Rises 17:18:44 0° 238° (WSW) 3,670 12.1 12.5°
Reaches altitude 10° 17:21:32 10° 247° (WSW) 2,727 11.8 12.0°
Maximum altitude 17:27:22 36° 313° (NW) 1,498 9.8 10.9°
Drops below altitude 10° 17:33:11 10° 19° (NNE) 2,716 10.2 9.9°
Sets 17:35:59 0° 28° (NNE) 3,653 10.8 9.4°
